Content
SEND FEEDBACK

Daily
Averages
Monthly
Summary
Philippines

BOOT, PHILIPPINES


Home > Asia > Philippines
Elevation: 36 feet     Latitude: 14 04N     Longitude: 121 03E

WEATHER
 
SELECT A DAY
Number of Records: 172,299;   Date Range: 7/1/96 - 7/7/14
 
SHARE

PRINT THIS DATA

[ ← Previous Day ]
WEATHER ALMANAC - APRIL 18, 2013
[ Next Day → ]
[ °C ]   °F
Weather ElementAverageHighLow
Temperature88.9 °F96.8 °F (2:00 pm)80.6 °F (4:00 am)
Dewpoint74.1 °F79 °F (8:00 pm)69.8 °F (3:00 pm)
Humidity60.9 %89 % (4:00 am)34 % (2:00 pm)
Barometer29.79 in29.87 in (8:00 am)29.71 in (3:00 pm)
Wind Speed6.1 mph10.4 mph (4:00 pm)
Weather ElementAverage
Visibility6.1 mi
Wind DirectionESE (102 °)

Weather ElementTotal
Precipitation---
Cooling Degree Days23.7 (Base 65)
Growing Degree Days38.7 (Base 50)
Averaged from 30 records on April 18, 2013
WEATHER CONDITIONS BREAKOUT
WIND DIRECTION BREAKOUT
WEATHER BY HOUR - APRIL 18, 2013
[ °C ]   °F
Local TimeTemperatureDewpointHumidityBarometerVisibilityWind DirectionWind SpeedGust SpeedPrecipitationEventsConditions
1:00 AM84.2 °F75.2 °F74 %29.80 in6.2 miESE (110°)5.8 mphPartly Cloudy
2:00 AM84.0 °F76.0 °F72 %29.79 in6.0 miESE (120°)4.5 mphScattered Clouds
2:00 AM84.2 °F77.0 °F79 %29.77 in6.2 miESE (120°)4.6 mphPartly Cloudy
3:00 AM84.2 °F75.2 °F74 %29.77 in6.2 miSE (130°)3.5 mphPartly Cloudy
4:00 AM80.6 °F77.0 °F89 %29.77 in6.2 miENE (70°)4.6 mphPartly Cloudy
5:00 AM83.0 °F76.0 °F73 %29.81 in6.0 miEast (100°)2.2 mphScattered Clouds
5:00 AM82.4 °F75.2 °F79 %29.80 in6.2 miEast (100°)2.3 mphPartly Cloudy
6:00 AM82.4 °F73.4 °F74 %29.83 in6.2 miVariable2.3 mphScattered Clouds
7:00 AM84.2 °F73.4 °F70 %29.83 in6.2 miNNE (20°)6.9 mphScattered Clouds
8:00 AM87.0 °F73.0 °F55 %29.87 in6.0 miENE (70°)4.5 mphHaze
8:00 AM87.8 °F73.4 °F62 %29.86 in6.2 miENE (60°)3.5 mphScattered Clouds
9:00 AM89.6 °F73.4 °F59 %29.86 in6.2 miVariable1.2 mphScattered Clouds
10:00 AM91.4 °F75.2 °F59 %29.86 in6.2 miVariable3.5 mphPartly Cloudy
11:00 AM94.0 °F73.0 °F42 %29.85 in6.0 miSouth (170°)6.7 mphPartly Cloudy
11:00 AM93.2 °F73.4 °F52 %29.83 in6.2 miSouth (170°)6.9 mphScattered Clouds
12:00 PM95.0 °F71.6 °F47 %29.80 in6.2 miSSE (150°)5.8 mphPartly Cloudy
1:00 PM95.0 °F71.6 °F47 %29.77 in6.2 miSSE (160°)5.8 mphPartly Cloudy
2:00 PM96.0 °F71.0 °F34 %29.74 in6.0 miESE (120°)6.7 mphScattered Clouds
2:00 PM96.8 °F71.6 °F44 %29.74 in6.2 miESE (120°)6.9 mphPartly Cloudy
3:00 PM96.8 °F69.8 °F41 %29.71 in6.2 miSE (140°)8.1 mphPartly Cloudy
4:00 PM96.8 °F69.8 °F41 %29.71 in6.2 miESE (120°)10.4 mphPartly Cloudy
5:00 PM93.0 °F72.0 °F42 %29.71 in6.0 miSE (130°)8.9 mphScattered Clouds
5:00 PM93.2 °F71.6 °F49 %29.71 in6.2 miSE (130°)9.2 mphPartly Cloudy
7:00 PM89.6 °F75.2 °F62 %29.74 in6.2 miESE (120°)9.2 mphScattered Clouds
8:00 PM88.0 °F79.0 °F68 %29.78 in6.0 miESE (120°)6.7 mphScattered Clouds
8:00 PM87.8 °F77.0 °F70 %29.77 in6.2 miESE (120°)8.1 mphPartly Cloudy
9:00 PM87.8 °F75.2 °F66 %29.77 in6.2 miSE (130°)9.2 mphPartly Cloudy
10:00 PM86.0 °F75.2 °F70 %29.80 in6.2 miVariable8.1 mphPartly Cloudy
11:00 PM86.0 °F76.0 °F64 %29.78 in6.0 miSE (130°)8.9 mphHaze
11:00 PM86.0 °F75.2 °F70 %29.80 in6.2 miSE (130°)8.1 mphScattered Clouds
Hourly data recorded from RPLL, located miles away from Boot, Philippines







STORIES FROM OUR PARTNERS